Location: Bushrod
(6.3500°N, 10.7833°W)
Time: 15:07:11
(UTC+00:00)

Cosmos 1441 Rocket - Pass Details

Date: 17 September 2019
Orbit: 496 x 541 km, 81.1° (Epoch: 18 October)

Event Time Altitude Azimuth Distance (km) Brightness Sun altitude
Rises 19:42:37 0° 193° (SSW) 2,673 6.9 -15.9°
Reaches altitude 10° 19:44:49 10° 197° (SSW) 1,776 6.1 -16.4°
Maximum altitude 19:48:39 56° 275° (W) 629 3.9 -17.4°
Drops below altitude 10° 19:52:25 10° 354° (N) 1,746 6.0 -18.3°
Sets 19:54:33 0° 359° (N) 2,624 6.9 -18.8°
